Hourly Data Report for July 05, 2021

KUGLUKTUK A
NUNAVUT
Current Station Operator: NAVCAN

67°49'00.000" N
115°08'38.000" W
22.60 m
2300903
71938
YCO

Download Data

Hourly Data (July 2021)
Hourly Data Report for July 5, 2021
TIME
LST
Temp Definition
°C
Dew Point Definition
°C
Rel Hum Definition
%
Precip. Amount Definition
mm

Wind Dir Definition
10's deg

Wind Spd Definition
km/h
Visibility Definition
km
Stn Press Definition
kPa
Hmdx Definition


Wind Chill Definition


Weather Definition


00:00 6.5 3.6 81   36 10 24.1 101.79     LegendNANA
01:00 4.9 2.7 86   1 16 24.1 101.78     Rain
02:00 4.8 3.0 89   36 7 19.3 101.77     Rain
03:00 5.2 3.9 92   9 4 19.3 101.72     Rain Showers
04:00 5.4 4.4 93   8 3 12.9 101.70     Rain Showers
05:00 6.1 5.3 94   2 8 19.3 101.67     Rain Showers
06:00 4.7 4.0 95   36 7 24.1 101.66     Rain Showers
07:00 6.0 5.4 96   36 2 19.3 101.66     LegendNANA
08:00 6.4 5.5 94   36 5 24.1 101.63     Cloudy
09:00 7.6 6.5 92   35 4 24.1 101.62     LegendNANA
10:00 8.8 7.2 90   36 7 24.1 101.60     LegendNANA
11:00 11.2 9.3 88   30 5 24.1 101.59     Cloudy
12:00 15.7 11.5 76   28 14 24.1 101.55     LegendNANA
13:00 16.3 10.7 69   31 19 24.1 101.54     LegendNANA
14:00 15.8 11.1 73   33 10 24.1 101.54     Cloudy
15:00 17.1 11.1 67   34 15 24.1 101.53     LegendNANA
16:00 17.6 10.7 63   33 19 24.1 101.54     LegendNANA
17:00 16.2 10.5 69   5 12 24.1 101.54     Mainly Clear
18:00 15.6 10.2 70   6 13 24.1 101.53     LegendNANA
19:00 14.3 9.7 74   8 11 24.1 101.51     LegendNANA
20:00 13.2 9.8 80   10 10 24.1 101.51     Mostly Cloudy
21:00 12.8 9.7 81   11 13 24.1 101.49     LegendNANA
22:00 12.4 9.6 83   11 10 24.1 101.48     LegendNANA
23:00 10.5 8.8 89   10 11 24.1 101.45     Mostly Cloudy

Notes on Data Quality.

Legend

  • E = Estimated
  • M = Missing
  • NA = Not Available*
  • [empty] = Indicates an unobserved value
Date modified: